TimeCST,TemperatureF,Dew PointF,Humidity,Sea Level PressureIn,VisibilityMPH,Wind Direction,Wind SpeedMPH,Gust SpeedMPH,PrecipitationIn,Events,Conditions,WindDirDegrees,DateUTC
12:53 AM,21.0,18.0,88,30.42,9.0,SE,11.5,-,N/A,,Clear,130,2013-03-08 06:53:00
1:53 AM,19.0,18.0,96,30.43,8.0,SSE,6.9,-,N/A,,Clear,160,2013-03-08 07:53:00
2:53 AM,18.0,16.0,92,30.43,7.0,SE,6.9,-,N/A,,Clear,140,2013-03-08 08:53:00
3:53 AM,19.9,18.0,92,30.42,7.0,SE,11.5,-,N/A,,Clear,130,2013-03-08 09:53:00
4:53 AM,19.0,17.1,92,30.42,7.0,SE,10.4,-,N/A,,Clear,140,2013-03-08 10:53:00
5:53 AM,19.0,18.0,96,30.43,6.0,SSE,9.2,-,N/A,,Clear,160,2013-03-08 11:53:00
6:53 AM,18.0,17.1,96,30.44,5.0,SSE,6.9,-,N/A,,Clear,150,2013-03-08 12:53:00
7:53 AM,21.0,19.0,92,30.43,5.0,SSE,8.1,-,N/A,,Clear,160,2013-03-08 13:53:00
8:53 AM,26.6,21.2,80,30.38,6.0,SSE,16.1,-,N/A,,Clear,160,2013-03-08 14:53:00
9:53 AM,28.0,23.0,81,30.43,6.0,South,16.1,-,N/A,,Haze,170,2013-03-08 15:53:00
10:53 AM,30.0,25.0,82,30.43,7.0,SSE,15.0,-,N/A,,Clear,160,2013-03-08 16:53:00
11:53 AM,32.0,26.1,79,30.43,6.0,SSE,12.7,-,N/A,,Haze,150,2013-03-08 17:53:00
12:53 PM,33.1,26.1,75,30.40,8.0,SSE,16.1,-,N/A,,Clear,150,2013-03-08 18:53:00
1:53 PM,34.0,27.0,75,30.37,7.0,SE,12.7,-,N/A,,Clear,140,2013-03-08 19:53:00
2:53 PM,35.1,27.0,72,30.36,8.0,SSE,11.5,-,N/A,,Clear,150,2013-03-08 20:53:00
3:53 PM,34.0,28.0,79,30.35,8.0,SSE,10.4,-,N/A,,Clear,150,2013-03-08 21:53:00
4:53 PM,33.1,27.0,78,30.35,7.0,SSE,11.5,-,N/A,,Clear,160,2013-03-08 22:53:00
5:53 PM,32.0,27.0,82,30.35,7.0,SE,9.2,-,N/A,,Clear,140,2013-03-08 23:53:00
6:53 PM,30.9,26.1,82,30.34,8.0,SE,8.1,-,N/A,,Clear,140,2013-03-09 00:53:00
7:53 PM,30.0,26.1,85,30.31,8.0,ESE,8.1,-,N/A,,Clear,120,2013-03-09 01:53:00
8:53 PM,30.9,28.0,89,30.29,7.0,SE,16.1,-,N/A,,Clear,140,2013-03-09 02:53:00
9:53 PM,30.9,28.0,89,30.27,6.0,SE,17.3,-,N/A,,Clear,130,2013-03-09 03:53:00
10:53 PM,30.9,28.0,89,30.25,7.0,SE,18.4,-,N/A,,Clear,140,2013-03-09 04:53:00
11:53 PM,30.9,28.0,89,30.23,7.0,SSE,13.8,-,N/A,,Clear,150,2013-03-09 05:53:00